Tracking 31027 objects as of 19-Jul-2025
HD Live streaming from Space Station
objects crossing your sky now

STARLINK-1545

Track STARLINK-1545 now!
10-day predictions
STARLINK-1545 is classified as:


NORAD ID: 46156
Int'l Code: 2020-057AR
Perigee: 553.5 km
Apogee: 555.2 km
Inclination: 53.1 °
Period: 95.6 minutes
Semi major axis: 6925 km
RCS: Unknown
Launch date: August 18, 2020
Source: United States (US)
Launch site: AIR FORCE EASTERN TEST RANGE (AFETR)
Your satellite tracking list
STARLINK-31009
Track 1 satellite(s)




NASA's NSSDC Master Catalog

Two Line Element Set (TLE):
1 46156U 20057AR  25199.46812625  .00001245  00000-0  10243-3 0  9991
2 46156  53.0538 268.0802 0001233  84.3923 275.7206 15.06400593272296
Source of the keplerian elements: AFSPC